Consulta los datos en tiempo real de la estación municipal de Cànoves i Samalús
| Hora UTC | 05:40 |
|---|---|
| Temperatura | 13.3 ºC |
| Humedad | 91.5 % |
| Presión | 1012.9 hPa |
| Pluja | 0.2 mm |
| Velocidad viento | 1.4 km/h |
| Dirección viento | NNW |
| Radiación solar | 39.5 W/m² |
| Temperatura (ºC) | Humedad (%) | Presión (hPa) | Velocidad viento (km/h) | Precipitación (mm) | Radiación solar (W/m²) | |||||||||||||
|---|---|---|---|---|---|---|---|---|---|---|---|---|---|---|---|---|---|---|
| Hora UTC | Aire | Humedad | Presión | Vel. | Dir. | Vel. Max | Dir. | Intent. máx 5 min. | Rad. Sol. | |||||||||
| 00:05 | 13.4 | 82.6 | 1014.2 | 1.4 | NNW | 1.4 | NNW | 0.0 | 0.1 | |||||||||
| 00:10 | 13.4 | 82.6 | 1014.3 | 0.9 | NNW | 5.3 | NNE | 0.0 | 0.1 | |||||||||
| 00:15 | 13.4 | 82.7 | 1014.2 | 1.0 | NNW | 4.2 | NNW | 0.0 | 0.1 | |||||||||
| 00:20 | 13.5 | 82.9 | 1014.1 | 0.3 | WNW | 2.8 | SW | 0.0 | 0.1 | |||||||||
| 00:25 | 13.5 | 83.3 | 1014.1 | 0.4 | S | 3.2 | WNW | 0.0 | 0.1 | |||||||||
| 00:30 | 13.5 | 83.3 | 1014.0 | 0.3 | N | 2.8 | NNW | 0.0 | 0.1 | |||||||||
| 00:35 | 13.5 | 83.3 | 1014.0 | 2.6 | NE | 5.3 | N | 0.0 | 0.1 | |||||||||
| 00:40 | 13.6 | 82.4 | 1014.1 | 0.9 | NE | 3.9 | NE | 0.0 | 0.1 | |||||||||
| 00:45 | 13.7 | 82.2 | 1014.1 | 1.4 | W | 4.2 | SW | 0.0 | 0.1 | |||||||||
| 00:50 | 13.7 | 82.4 | 1014.1 | 0.4 | WNW | 3.5 | W | 0.0 | 0.1 | |||||||||
| 00:55 | 13.7 | 82.5 | 1014.1 | 0.0 | NNE | 0.0 | E | 0.0 | 0.1 | |||||||||
| 01:00 | 13.7 | 82.8 | 1014.0 | 1.1 | N | 3.5 | NNE | 0.0 | 0.1 | |||||||||
| 01:05 | 13.8 | 83.1 | 1014.0 | 2.7 | NNW | 4.9 | NNW | 0.0 | 0.1 | |||||||||
| 01:10 | 13.9 | 83.2 | 1013.9 | 4.0 | N | 5.6 | NNE | 0.0 | 0.1 | |||||||||
| 01:15 | 13.9 | 82.9 | 1013.7 | 3.0 | N | 6.7 | NNE | 0.0 | 0.1 | |||||||||
| 01:20 | 13.8 | 82.8 | 1013.7 | 1.8 | N | 6.0 | NNE | 0.0 | 0.1 | |||||||||
| 01:25 | 13.6 | 82.9 | 1013.7 | 0.6 | NE | 3.2 | NNE | 0.0 | 0.1 | |||||||||
| 01:30 | 13.5 | 83.3 | 1013.8 | 0.8 | ESE | 2.1 | ESE | 0.0 | 0.1 | |||||||||
| 01:35 | 13.4 | 84.1 | 1013.7 | 0.2 | S | 1.4 | S | 0.0 | 0.1 | |||||||||
| 01:40 | 13.3 | 84.5 | 1013.6 | 0.0 | NNE | 0.0 | S | 0.0 | 0.1 | |||||||||
| 01:45 | 13.2 | 85.0 | 1013.6 | 1.9 | NNW | 3.5 | NW | 0.0 | 0.1 | |||||||||
| 01:50 | 13.1 | 85.5 | 1013.5 | 1.7 | NW | 3.9 | NW | 0.0 | 0.1 | |||||||||
| 01:55 | 12.9 | 85.6 | 1013.4 | 1.4 | NW | 2.5 | NW | 0.0 | 0.1 | |||||||||
| 02:00 | 12.8 | 86.1 | 1013.4 | 1.0 | N | 3.9 | NNE | 0.0 | 0.1 | |||||||||
| 02:05 | 12.7 | 86.4 | 1013.3 | 1.8 | NNW | 3.9 | N | 0.0 | 0.1 | |||||||||
| 02:10 | 12.6 | 87.1 | 1013.2 | 2.4 | NNW | 4.9 | NNW | 0.0 | 0.1 | |||||||||
| 02:15 | 12.6 | 87.8 | 1013.2 | 2.3 | NNW | 4.2 | N | 0.0 | 0.1 | |||||||||
| 02:20 | 12.5 | 88.0 | 1013.1 | 3.4 | NNW | 4.9 | NW | 0.0 | 0.1 | |||||||||
| 02:25 | 12.4 | 88.4 | 1013.1 | 2.4 | NNW | 3.9 | NW | 0.0 | 0.1 | |||||||||
| 02:30 | 12.4 | 88.6 | 1013.1 | 0.4 | N | 2.8 | N | 0.0 | 0.1 | |||||||||
| 02:35 | 12.4 | 89.2 | 1013.2 | 1.5 | N | 3.5 | N | 0.0 | 0.1 | |||||||||
| 02:40 | 12.5 | 89.7 | 1013.2 | 3.0 | NNW | 4.6 | N | 0.0 | 0.1 | |||||||||
| 02:45 | 12.6 | 89.7 | 1013.2 | 4.1 | N | 5.6 | N | 0.0 | 0.1 | |||||||||
| 02:50 | 12.6 | 89.4 | 1013.1 | 3.6 | NNW | 5.6 | NNE | 0.0 | 0.1 | |||||||||
| 02:55 | 12.6 | 89.2 | 1013.0 | 2.8 | NNW | 4.6 | NNW | 0.0 | 0.1 | |||||||||
| 03:00 | 12.6 | 89.2 | 1013.0 | 4.1 | NNW | 5.3 | NNW | 0.0 | 0.1 | |||||||||
| 03:05 | 12.7 | 89.0 | 1013.0 | 2.4 | N | 3.9 | NNW | 0.0 | 0.1 | |||||||||
| 03:10 | 12.7 | 88.6 | 1013.1 | 2.2 | NNE | 3.5 | NNE | 0.0 | 0.1 | |||||||||
| 03:15 | 12.8 | 88.6 | 1013.0 | 4.7 | N | 6.4 | N | 0.0 | 0.1 | |||||||||
| 03:20 | 12.8 | 88.3 | 1013.0 | 2.5 | NW | 5.6 | NW | 0.0 | 0.1 | |||||||||
| 03:25 | 12.9 | 88.5 | 1013.0 | 1.5 | NNW | 2.5 | NW | 0.0 | 0.1 | |||||||||
| 03:30 | 12.9 | 88.4 | 1013.0 | 1.2 | N | 3.5 | NNW | 0.0 | 0.1 | |||||||||
| 03:35 | 12.9 | 88.3 | 1013.1 | 0.9 | N | 2.8 | NNE | 0.0 | 0.1 | |||||||||
| 03:40 | 12.9 | 88.0 | 1013.1 | 1.7 | NNE | 4.2 | NE | 0.0 | 0.1 | |||||||||
| 03:45 | 12.9 | 87.5 | 1013.0 | 3.3 | N | 5.6 | N | 0.0 | 0.1 | |||||||||
| 03:50 | 12.9 | 87.2 | 1013.0 | 3.0 | N | 8.5 | NNW | 0.0 | 0.1 | |||||||||
| 03:55 | 12.9 | 86.9 | 1013.0 | 2.9 | NW | 7.8 | NW | 0.0 | 0.1 | |||||||||
| 04:00 | 13.0 | 86.9 | 1012.9 | 3.0 | NNW | 5.6 | NNW | 0.0 | 0.1 | |||||||||
| 04:05 | 13.0 | 86.7 | 1012.8 | 1.9 | NNW | 4.6 | NW | 0.0 | 0.1 | |||||||||
| 04:10 | 12.9 | 86.6 | 1012.8 | 0.2 | N | 2.1 | NNE | 0.0 | 0.1 | |||||||||
| 04:15 | 12.9 | 86.7 | 1012.8 | 1.0 | N | 3.5 | NNE | 0.0 | 0.2 | |||||||||
| 04:20 | 12.8 | 86.6 | 1012.9 | 0.3 | NNW | 3.2 | N | 0.0 | 0.3 | |||||||||
| 04:25 | 12.7 | 86.8 | 1012.9 | 0.0 | NNE | 0.0 | NNE | 0.0 | 0.8 | |||||||||
| 04:30 | 12.7 | 87.1 | 1012.9 | 0.5 | ENE | 3.5 | ENE | 0.0 | 0.7 | |||||||||
| 04:35 | 12.7 | 87.9 | 1012.9 | 1.9 | NNE | 4.2 | NNE | 0.0 | 0.6 | |||||||||
| 04:40 | 12.7 | 87.9 | 1013.0 | 1.3 | NNW | 4.2 | NW | 0.0 | 0.9 | |||||||||
| 04:45 | 12.8 | 88.1 | 1013.0 | 1.7 | NNE | 3.5 | NNW | 0.0 | 1.6 | |||||||||
| 04:50 | 12.9 | 88.7 | 1013.0 | 1.7 | SE | 4.2 | SE | 0.0 | 2.7 | |||||||||
| 04:55 | 13.0 | 89.0 | 1013.0 | 2.8 | NE | 7.8 | NE | 0.0 | 4.2 | |||||||||
| 05:00 | 13.1 | 89.2 | 1013.0 | 1.2 | NE | 3.2 | ENE | 0.0 | 6.3 | |||||||||
| 05:05 | 13.1 | 89.5 | 1013.1 | 2.2 | N | 5.6 | NNE | 0.0 | 8.2 | |||||||||
| 05:10 | 13.1 | 89.8 | 1013.1 | 2.5 | N | 4.9 | NNE | 0.1 | 9.5 | |||||||||
| 05:15 | 13.1 | 89.9 | 1013.1 | 2.1 | N | 5.3 | NNW | 0.0 | 9.2 | |||||||||
| 05:20 | 13.1 | 90.2 | 1013.1 | 1.9 | N | 5.3 | NNE | 0.0 | 12.4 | |||||||||
| 05:25 | 13.1 | 90.7 | 1012.9 | 3.8 | N | 6.4 | NNW | 0.0 | 20.4 | |||||||||
| 05:30 | 13.2 | 90.9 | 1012.9 | 2.3 | NNW | 4.9 | NNW | 0.1 | 32.7 | |||||||||
| 05:35 | 13.2 | 91.2 | 1012.9 | 2.1 | NNW | 5.3 | N | 0.0 | 34.8 | |||||||||
| 05:40 | 13.3 | 91.5 | 1012.9 | 1.4 | NNW | 3.2 | NNW | 0.0 | 39.5 | |||||||||
| Máxima | 13.9 | 91.5 | 1014.3 | 4.7 | N | 8.5 | NNW | 0.1 | 39.5 | |||||||||
| Mínima | 12.4 | 82.2 | 1012.8 | |||||||||||||||
| Total | 0.2 | |||||||||||||||||